| time (UTC) | temp C | wind direction | speed KPH | gust KPH | rain 1hr cm | rain 24hr cm | rain mn cm | humidity % | barometer mb |
| 20260904223051 | 14 | 238 | 4.8 | 20.9 | 0.00 | 0.99 | 0.00 | 86 | 1002.1 |
| 20260904221551 | 14 | 277 | 8.0 | 17.7 | 0.00 | 0.99 | 0.00 | 86 | 1002.0 |
| 20260904220046 | 14 | 217 | 6.4 | 24.1 | 0.00 | 0.99 | 0.00 | 86 | 1002.1 |
| 20260904214549 | 13 | 284 | 4.8 | 19.3 | 0.00 | 0.99 | 0.99 | 86 | 1001.8 |
| 20260904213043 | 13 | 281 | 3.2 | 19.3 | 0.00 | 0.99 | 0.99 | 86 | 1001.8 |
| 20260904211543 | 13 | 247 | 4.8 | 17.7 | 0.00 | 0.99 | 0.99 | 86 | 1001.7 |
| 20260904210048 | 13 | 265 | 6.4 | 17.7 | 0.00 | 0.99 | 0.99 | 87 | 1001.6 |
| 20260904204538 | 13 | 219 | 6.4 | 17.7 | 0.00 | 0.99 | 0.99 | 86 | 1001.5 |
| 20260904203036 | 14 | 306 | 4.8 | 17.7 | 0.00 | 0.99 | 0.99 | 87 | 1001.3 |
| 20260904201542 | 14 | 213 | 8.0 | 25.7 | 0.00 | 0.99 | 0.99 | 87 | 1001.0 |
| 20260904200033 | 14 | 281 | 9.7 | 19.3 | 0.00 | 0.99 | 0.99 | 88 | 1000.9 |
| 20260904194529 | 14 | 255 | 6.4 | 24.1 | 0.00 | 0.99 | 0.99 | 87 | 1000.7 |
| 20260904193032 | 15 | 194 | 4.8 | 25.7 | 0.00 | 0.99 | 0.99 | 88 | 1000.4 |
| 20260904191529 | 15 | 237 | 4.8 | 22.5 | 0.00 | 0.99 | 0.99 | 89 | 1000.2 |
| 20260904184524 | 15 | 205 | 4.8 | 16.1 | 0.03 | 0.99 | 0.99 | 91 | 999.7 |
| 20260904183025 | 15 | 232 | 3.2 | 12.9 | 0.15 | 0.99 | 0.99 | 91 | 999.5 |
| 20260904181523 | 15 | 240 | 3.2 | 9.7 | 0.20 | 0.99 | 0.99 | 91 | 999.5 |
| 20260904180022 | 15 | 249 | 0.0 | 0.0 | 0.20 | 0.99 | 0.99 | 91 | 999.4 |
| 20260904174527 | 15 | 262 | 0.0 | 4.8 | 0.18 | 0.99 | 0.99 | 90 | 999.3 |
| 20260904173021 | 15 | 311 | 3.2 | 11.3 | 0.03 | 0.81 | 0.81 | 89 | 999.4 |
| 20260904171521 | 15 | 248 | 3.2 | 11.3 | 0.00 | 0.79 | 0.79 | 88 | 999.1 |
| 20260904170019 | 16 | 254 | 1.6 | 8.0 | 0.00 | 0.79 | 0.79 | 88 | 999.1 |
| 20260904164519 | 16 | 258 | 0.0 | 6.4 | 0.00 | 0.79 | 0.79 | 87 | 999.1 |
| 20260904163027 | 16 | 244 | 1.6 | 6.4 | 0.00 | 0.79 | 0.79 | 87 | 999.2 |
| 20260904161518 | 16 | 236 | 1.6 | 6.4 | 0.00 | 0.79 | 0.79 | 85 | 999.2 |
| 20260904160016 | 16 | 252 | 1.6 | 11.3 | 0.00 | 0.79 | 0.79 | 84 | 999.3 |
| 20260904154516 | 16 | 238 | 6.4 | 11.3 | 0.00 | 0.79 | 0.79 | 83 | 999.4 |
| 20260904153020 | 16 | 229 | 4.8 | 12.9 | 0.00 | 0.79 | 0.79 | 85 | 999.4 |
| 20260904151512 | 16 | 219 | 1.6 | 12.9 | 0.03 | 0.79 | 0.79 | 87 | 999.5 |
| 20260904150025 | 15 | 235 | 3.2 | 11.3 | 0.03 | 0.79 | 0.79 | 87 | 999.6 |
| 20260904144511 | 15 | 228 | 0.0 | 6.4 | 0.05 | 0.79 | 0.79 | 89 | 999.5 |
| 20260904143013 | 15 | 252 | 0.0 | 9.7 | 0.13 | 0.79 | 0.79 | 90 | 999.7 |
| 20260904141509 | 15 | 292 | 1.6 | 8.0 | 0.13 | 0.79 | 0.79 | 90 | 999.9 |
| 20260904140008 | 16 | 289 | 4.8 | 12.9 | 0.15 | 0.79 | 0.79 | 91 | 999.8 |
| 20260904134556 | 16 | 217 | 4.8 | 8.0 | 0.13 | 0.79 | 0.71 | 92 | 999.8 |
| 20260904133143 | 16 | 237 | 3.2 | 12.9 | 0.08 | 0.71 | 0.71 | 92 | 999.9 |
| 20260904131551 | 16 | 237 | 4.8 | 12.9 | 0.05 | 0.71 | 0.66 | 92 | 999.8 |
| 20260904130144 | 16 | 227 | 3.2 | 11.3 | 0.05 | 0.69 | 0.64 | 92 | 999.5 |
| 20260904124611 | 16 | 217 | 4.8 | 12.9 | 0.08 | 0.69 | 0.61 | 92 | 999.6 |
| 20260904123005 | 16 | 211 | 4.8 | 12.9 | 0.10 | 0.69 | 0.61 | 92 | 999.7 |
| 20260904121550 | 16 | 209 | 4.8 | 11.3 | 0.13 | 0.66 | 0.61 | 92 | 1000.0 |
| 20260904120015 | 16 | 194 | 4.8 | 9.7 | 0.15 | 0.64 | 0.58 | 92 | 1000.3 |
| 20260904114558 | 16 | 215 | 6.4 | 12.9 | 0.13 | 0.69 | 0.53 | 91 | 1000.5 |
| 20260904113033 | 16 | 216 | 8.0 | 14.5 | 0.10 | 0.64 | 0.51 | 91 | 1000.8 |
| 20260904111638 | 16 | 195 | 6.4 | 17.7 | 0.13 | 0.61 | 0.48 | 91 | 1000.6 |
| 20260904110059 | 16 | 210 | 3.2 | 8.0 | 0.23 | 0.58 | 0.43 | 92 | 1000.8 |
| 20260904104502 | 16 | 249 | 3.2 | 9.7 | 0.30 | 0.58 | 0.43 | 91 | 1001.1 |
| 20260904103116 | 16 | 261 | 0.0 | 8.0 | 0.33 | 0.56 | 0.41 | 91 | 1001.3 |
| 20260904101654 | 16 | 207 | 3.2 | 9.7 | 0.28 | 0.51 | 0.36 | 91 | 1001.5 |
| 20260904100058 | 16 | 224 | 0.0 | 6.4 | 0.13 | 0.36 | 0.20 | 91 | 1001.7 |
| 20260904094548 | 16 | 234 | 4.8 | 16.1 | 0.05 | 0.33 | 0.13 | 90 | 1001.9 |
| 20260904093148 | 16 | 211 | 6.4 | 12.9 | 0.00 | 0.28 | 0.08 | 90 | 1002.2 |
| 20260904091558 | 16 | 200 | 8.0 | 14.5 | 0.03 | 0.28 | 0.08 | 90 | 1002.6 |
| 20260904090036 | 16 | 223 | 4.8 | 12.9 | 0.03 | 0.28 | 0.08 | 91 | 1002.6 |
| 20260904084531 | 16 | 214 | 9.7 | 14.5 | 0.05 | 0.30 | 0.08 | 91 | 1002.9 |
| 20260904083040 | 15 | 198 | 6.4 | 11.3 | 0.05 | 0.30 | 0.08 | 91 | 1003.2 |
| 20260904081526 | 15 | 223 | 4.8 | 11.3 | 0.03 | 0.28 | 0.05 | 91 | 1003.3 |
| 20260904080025 | 15 | 188 | 4.8 | 12.9 | 0.05 | 0.28 | 0.05 | 91 | 1003.3 |
| 20260904074525 | 15 | 211 | 1.6 | 9.7 | 0.03 | 0.28 | 0.05 | 90 | 1003.5 |
| 20260904073026 | 15 | 198 | 3.2 | 8.0 | 0.03 | 0.28 | 0.05 | 90 | 1003.5 |
| 20260904071520 | 15 | 196 | 4.8 | 9.7 | 0.03 | 0.28 | 0.05 | 90 | 1003.7 |
| 20260904070017 | 15 | 208 | 3.2 | 9.7 | 0.00 | 0.25 | 0.03 | 90 | 1003.9 |
| 20260904064514 | 15 | 205 | 4.8 | 9.7 | 0.00 | 0.30 | 0.03 | 90 | 1004.4 |
| 20260904063022 | 14 | 205 | 3.2 | 8.0 | 0.03 | 0.30 | 0.03 | 89 | 1004.4 |
| 20260904061510 | 14 | 219 | 1.6 | 8.0 | 0.03 | 0.30 | 0.03 | 89 | 1004.5 |
| 20260904060009 | 14 | 219 | 4.8 | 8.0 | 0.03 | 0.30 | 0.03 | 88 | 1004.9 |
| 20260904054505 | 14 | 219 | 3.2 | 8.0 | 0.03 | 0.33 | 0.03 | 87 | 1005.0 |
| 20260904053003 | 14 | 226 | 1.6 | 6.4 | 0.00 | 0.30 | 0.00 | 86 | 1005.2 |
| 20260904051501 | 15 | 224 | 4.8 | 8.0 | 0.00 | 0.30 | 0.00 | 85 | 1005.4 |
| 20260904050100 | 15 | 240 | 3.2 | 8.0 | 0.00 | 0.30 | 0.00 | 85 | 1005.6 |
| 20260904044557 | 15 | 234 | 3.2 | 11.3 | 0.00 | 0.30 | 0.00 | 84 | 1005.4 |
| 20260904043056 | 15 | 211 | 3.2 | 9.7 | 0.00 | 0.30 | 0.00 | 84 | 1005.6 |
| 20260904041553 | 15 | 240 | 4.8 | 9.7 | 0.00 | 0.30 | 0.00 | 84 | 1005.7 |
| 20260904034553 | 15 | 234 | 6.4 | 16.1 | 0.00 | 0.33 | 0.00 | 84 | 1006.0 |
| 20260904033046 | 15 | 223 | 3.2 | 14.5 | 0.00 | 0.33 | 0.00 | 84 | 1006.1 |
| 20260904031545 | 15 | 216 | 6.4 | 14.5 | 0.00 | 0.33 | 0.00 | 83 | 1006.4 |
| 20260904030042 | 15 | 242 | 3.2 | 9.7 | 0.00 | 0.33 | 0.00 | 83 | 1006.4 |
| 20260904024547 | 15 | 252 | 4.8 | 14.5 | 0.00 | 0.33 | 0.00 | 83 | 1006.3 |
| 20260904023049 | 15 | 225 | 4.8 | 14.5 | 0.00 | 0.33 | 0.00 | 83 | 1006.4 |
| 20260904021537 | 15 | 217 | 4.8 | 16.1 | 0.00 | 0.33 | 0.00 | 83 | 1006.5 |
| 20260904020037 | 15 | 256 | 4.8 | 16.1 | 0.00 | 0.33 | 0.00 | 83 | 1006.8 |
| 20260904014541 | 15 | 217 | 4.8 | 11.3 | 0.00 | 0.33 | 0.00 | 83 | 1006.7 |
| 20260904013038 | 16 | 226 | 4.8 | 14.5 | 0.00 | 0.33 | 0.00 | 83 | 1006.6 |
| 20260904011536 | 16 | 232 | 3.2 | 16.1 | 0.00 | 0.33 | 0.00 | 84 | 1006.9 |
| 20260904010039 | 16 | 293 | 1.6 | 14.5 | 0.00 | 0.33 | 0.00 | 84 | 1006.9 |
| 20260904004529 | 16 | 238 | 4.8 | 17.7 | 0.00 | 0.33 | 0.00 | 84 | 1007.1 |
| 20260904003033 | 16 | 231 | 3.2 | 17.7 | 0.00 | 0.33 | 0.00 | 84 | 1007.1 |
| 20260904001528 | 16 | 236 | 4.8 | 19.3 | 0.00 | 0.33 | 0.00 | 84 | 1007.1 |
| 20260904000025 | 16 | 223 | 4.8 | 12.9 | 0.00 | 0.33 | 0.00 | 83 | 1007.1 |
| 20260903234523 | 16 | 263 | 4.8 | 14.5 | 0.00 | 0.33 | 0.00 | 83 | 1007.3 |
| 20260903233022 | 16 | 229 | 6.4 | 12.9 | 0.00 | 0.33 | 0.00 | 84 | 1007.2 |
| 20260903231530 | 16 | 240 | 6.4 | 14.5 | 0.00 | 0.33 | 0.00 | 85 | 1007.2 |
| 20260903230025 | 16 | 236 | 6.4 | 14.5 | 0.00 | 0.33 | 0.00 | 85 | 1007.4 |
| 20260903224531 | 16 | 237 | 3.2 | 19.3 | 0.00 | 0.33 | 0.00 | 86 | 1007.4 |